FENGYUN 1C DEB, 30735

Orbit data source: Space-Track

FENGYUN 1C DEB, 30735 is space debris in SSO originally from a launch on Mon, 10 May 1999 UTC launched from the Taiyaun Space Center, China (TSC). Fengyun 1C debris stems from the Chinese weather satellite Fengyun-1C, which was intentionally destroyed by a Chinese anti-satellite missile in 2007. This event dramatically increased the amount of space debris, with thousands of trackable fragments posing hazards to satellites and human spaceflight. The Fengyun 1C debris cloud has become a focal point in discussions about space sustainability and the need for international regulations to prevent the creation of new debris.

Loading next visibility...
Identifier
30735, 1999-025ASV
Orbit
SSO
Country
Flag of CNCN / PRC
Related business
Manufacturer
Unknown
Mission
Spacecraft
Bus & Motor
Unknown
Mass
Unknown
Launch date (UTC)
1999-05-10 (27 years ago)
Launch vehicle
Unknown
Launch site
Taiyaun Space Center, China (TSC)
Object type
Payload
Rocket body
Debris
Shape & HBR
Unknown shape, 0.1 m
Radar Cross Section
Small (<0.1 m²)

Expand to show TLE details & history
Last TLE update: 17 hours ago

TLE from 17 hours ago
0 FENGYUN 1C DEB
1 30735U 99025ASV 26255.47023876  .00001752  00000-0  74553-3 0  9992
2 30735  98.7480 330.7758 0060010 171.1503 318.8918 14.25528947  6397
Epoch: 2026-09-12T11:17Z
TLE epoch observation values (Epoch: 2026-09-12T11:17:08.628Z)
Latitude
49.7138°
Longitude
0.41399°
Altitude
782.195 km
Speed
7.484 km/s
True Right ascension
10h 44m 42s
True Declination
49° 32' 41"
Sunlit
Object was in daylight at epoch
Visualization orbit readout
Latitude
Unknown
Longitude
Unknown
Altitude
Unknown
Speed
Unknown
Apparent Right ascension
Unknown
Apparent Declination
Unknown
Sunlit
N/A
Visualization observer readout
Local Sidereal Time
20:48:54
Azimuth
Unknown
Elevation
Unknown
Doppler factor
Unknown
Orbital elements
Apogee altitude
846.967 km
Perigee altitude
760.768 km
Semi-major axis
7,182.005 km
Eccentricity
0.006
Inclination
98.748°
RAAN
330.7758°
Arg. of periapsis
171.1503°
True anomaly
318.43711°
Mean anomaly
318.8918°
Eccentric anomaly
318.66471°
Mean motion
3.56595 °/min
Orbital period
100.96 mins
BSTAR
0.00074553
Loading maneuver chart data...
Computing Atmospheric mass density...

Documentation

Showing up to 5 results
|